This demonstration page uses our WeatherBlox Daily Observations layout. Learn more.

Left ArrowRight Arrow

Hourly Observations for November 22, 2020

Temp ( °F °C ) Dew Point ( °F °C ) Humidity (%) Winds ( mph kmh ) Pressure ( in mb ) Visibility ( mi km ) Precip ( " mm )
12:15 am 00:15 Clear with Mist and Fog 31 -0.3 31 -0.8 96 96 SSW 5 7 30.43 1030 4 6 N/A
12:35 am 00:35 Clear 32 undefined 32 -0.2 99 99 SSW 6 9 30.43 1030 7 11 N/A
12:55 am 00:55 Clear 32 -0.1 31 -0.6 96 96 SSW 5 7 30.44 1031 7 11 N/A
1:15 am 01:15 Partly Cloudy 32 undefined 31 -0.5 96 96 SW 5 7 30.44 1031 7 11 N/A
1:35 am 01:35 Mostly Cloudy 32 undefined 31 -0.5 96 96 SW 6 9 30.44 1031 7 11 N/A
1:55 am 01:55 Cloudy with Mist and Fog 31 -0.6 30 -1.3 95 95 SW 6 9 30.44 1031 1 2 N/A
2:15 am 02:15 Partly Cloudy with Mist and Fog 30 -1 29 -1.5 96 96 SW 5 7 30.45 1031 4 6 N/A
2:35 am 02:35 Clear 29 -1.5 28 -2 96 96 WSW 5 7 30.45 1031 10 16 N/A
2:55 am 02:55 Mostly Cloudy 31 -0.4 30 -0.9 96 96 NW 8 13 30.45 1031 10 16 N/A
3:15 am 03:15 Partly Cloudy 28 -2.5 27 -3 96 96 NW 5 7 30.47 1032 7 11 N/A
3:35 am 03:35 Clear 28 -2.5 26 -3.1 96 96 WNW 6 9 30.47 1032 7 11 N/A
3:55 am 03:55 Clear 28 -2.3 27 -2.9 96 96 WNW 6 9 30.47 1032 10 16 N/A
4:15 am 04:15 Clear 28 -2.3 26 -3.1 94 94 WNW 9 15 30.46 1031 10 16 N/A
4:35 am 04:35 Clear 27 -2.9 25 -3.7 94 94 WNW 5 7 30.46 1032 10 16 N/A
4:55 am 04:55 Clear 26 -3.1 25 -3.8 95 95 WNW 7 11 30.48 1032 10 16 N/A
5:15 am 05:15 Clear 28 -2.4 26 -3.1 95 95 WNW 7 11 30.47 1032 10 16 N/A
5:35 am 05:35 Clear 26 -3.5 24 -4.6 92 92 WNW 7 11 30.49 1033 10 16 N/A
5:55 am 05:55 Clear 28 -2.5 25 -3.7 92 92 NW 10 17 30.48 1032 10 16 N/A
6:15 am 06:15 Clear 29 -1.8 26 -3.5 88 88 NW 9 15 30.47 1032 10 16 N/A
6:35 am 06:35 Clear 28 -2.5 24 -4.2 88 88 NW 9 15 30.49 1033 10 16 N/A
6:55 am 06:55 Clear 28 -2.5 24 -4.5 86 86 WNW 9 15 30.49 1033 10 16 N/A
7:15 am 07:15 Clear 27 -3 23 -5.2 85 85 WNW 6 9 30.50 1033 10 16 N/A
7:35 am 07:35 Sunny 27 -3 22 -5.5 83 83 WNW 9 15 30.52 1033 10 16 N/A
7:55 am 07:55 Sunny 27 -2.9 22 -5.3 84 84 NW 9 15 30.52 1034 10 16 N/A
8:15 am 08:15 Sunny 28 -2.1 23 -5.1 80 80 NW 7 11 30.52 1033 10 16 N/A
8:35 am 08:35 Sunny 30 -1 24 -4.5 77 77 WNW 9 15 30.51 1033 10 16 N/A
8:55 am 08:55 Sunny 32 undefined 26 -3.4 78 78 NW 8 13 30.51 1033 10 16 N/A
9:15 am 09:15 Sunny 34 1 27 -2.8 76 76 NW 9 15 30.51 1033 10 16 N/A
9:35 am 09:35 Sunny 35 1.9 27 -2.7 72 72 NW 12 19 30.50 1033 10 16 N/A
9:55 am 09:55 Sunny 37 2.7 26 -3.5 64 64 NW 12 19 30.49 1033 10 16 N/A
10:15 am 10:15 Sunny 39 4 26 -3.1 60 60 NNW 12 19 30.48 1032 10 16 N/A
10:35 am 10:35 Sunny 42 5.5 25 -3.7 52 52 NNW 15 24 30.46 1032 10 16 N/A
10:55 am 10:55 Sunny 43 6.1 24 -4.2 48 48 NNW 15 24 30.46 1031 10 16 N/A
11:15 am 11:15 Sunny 43 6.3 24 -4.4 47 47 NNW 15 24 30.46 1031 10 16 N/A
11:35 am 11:35 Sunny 45 7 24 -4.4 44 44 NNW 14 22 30.44 1031 10 16 N/A
11:55 am 11:55 Sunny 46 7.6 24 -4.5 42 42 NNW 13 20 30.43 1031 10 16 N/A
12:15 pm 12:15 Sunny 47 8.2 24 -4.6 40 40 NW 14 22 30.42 1030 10 16 N/A
12:35 pm 12:35 Sunny 48 9 23 -4.8 38 38 NNW 10 17 30.40 1030 10 16 N/A
12:55 pm 12:55 Sunny 49 9.2 23 -5.1 36 36 NW 8 13 30.38 1029 10 16 N/A
1:15 pm 13:15 Sunny 49 9.7 22 -5.7 34 34 NW 12 19 30.38 1029 10 16 N/A
1:35 pm 13:35 Sunny 50 10 21 -6.1 32 32 NNW 8 13 30.36 1028 10 16 N/A
1:55 pm 13:55 Sunny 50 10.2 21 -6.2 31 31 NW 10 17 30.35 1028 10 16 N/A
2:15 pm 14:15 Sunny 51 10.4 19 -7 29 29 WNW 8 13 30.35 1028 10 16 N/A
2:35 pm 14:35 Sunny 51 10.6 18 -7.9 27 27 WNW 9 15 30.34 1027 10 16 N/A
2:55 pm 14:55 Sunny 51 10.5 18 -8 27 27 NW 7 11 30.34 1027 10 16 N/A
3:15 pm 15:15 Sunny 51 10.5 17 -8.3 26 26 W 10 17 30.33 1027 10 16 N/A
3:35 pm 15:35 Sunny 51 10.4 17 -8.5 26 26 WNW 7 11 30.33 1027 10 16 N/A
3:55 pm 15:55 Sunny 50 10 17 -8.5 27 27 W 9 15 30.33 1027 10 16 N/A
4:15 pm 16:15 Sunny 50 9.8 16 -8.9 26 26 W 7 11 30.33 1027 10 16 N/A
4:35 pm 16:35 Sunny 48 9.1 16 -8.7 28 28 W 7 11 30.34 1027 10 16 N/A
4:55 pm 16:55 Sunny 47 8.2 16 -9.1 29 29 W 3 6 30.35 1028 10 16 N/A
5:15 pm 17:15 Clear 45 7 15 -9.2 31 31 N N/A 30.35 1028 10 16 N/A
5:35 pm 17:35 Clear 42 5.6 15 -9.2 34 34 N N/A 30.36 1028 10 16 N/A
5:55 pm 17:55 Clear 41 5.1 15 -9.2 35 35 N N/A 30.37 1028 10 16 N/A
6:15 pm 18:15 Clear 39 3.9 15 -9.6 37 37 N N/A 30.38 1029 10 16 N/A
6:35 pm 18:35 Clear 37 2.9 15 -9.4 40 40 N N/A 30.38 1029 10 16 N/A
6:55 pm 18:55 Clear 37 2.5 15 -9.6 41 41 SW 3 6 30.38 1029 10 16 N/A
7:15 pm 19:15 Clear 32 undefined 15 -9.6 49 49 N N/A 30.41 1030 10 16 N/A
7:35 pm 19:35 Clear 33 0.7 15 -9.4 47 47 SW 5 7 30.40 1029 10 16 N/A
7:55 pm 19:55 Clear 36 2 15 -9.6 42 42 SSW 7 11 30.40 1029 10 16 N/A
8:15 pm 20:15 Clear 35 1.4 14 -9.9 43 43 SSW 7 11 30.39 1029 10 16 N/A
8:35 pm 20:35 Clear 34 1.1 13 -10.4 42 42 S 5 7 30.40 1029 10 16 N/A
8:55 pm 20:55 Clear 26 -3.6 13 -10.8 58 58 S 6 9 30.43 1031 10 16 N/A
9:15 pm 21:15 Clear 26 -3.5 13 -10.8 57 57 S 5 7 30.43 1030 10 16 N/A
9:35 pm 21:35 Clear 28 -2.3 13 -10.7 53 53 S 5 7 30.42 1030 10 16 N/A
9:55 pm 21:55 Clear 27 -2.8 12 -11.1 53 53 S 3 6 30.41 1030 10 16 N/A
10:15 pm 22:15 Clear 28 -2.1 13 -10.7 52 52 SSE 6 9 30.41 1030 10 16 N/A
10:35 pm 22:35 Clear 29 -1.9 13 -10.5 52 52 S 7 11 30.40 1030 10 16 N/A
10:55 pm 22:55 Clear 30 -1.3 14 -9.8 53 53 S 6 9 30.39 1029 10 16 N/A
11:15 pm 23:15 Clear 28 -2.2 14 -9.8 56 56 S 5 7 30.39 1029 10 16 N/A
11:35 pm 23:35 Clear 25 -3.7 13 -10.6 59 59 SSE 3 6 30.39 1029 10 16 N/A
11:55 pm 23:55 Clear 24 -4.2 14 -9.8 65 65 SE 7 11 30.39 1029 10 16 N/A

Powered by AerisWeather